[[{"header":{"parameterUnit":"m.s-1","parameterCategory":1,"la1":30.2991,"la2":30.254,"lo1":-89.0895,"lo2":-89.0444,"dy":0.0017,"dx":0.0017,"nx":28,"ny":28,"refTime":"2024-03-11T09:00:00:Z","depth":0,"parameterNumber":2,"parameterNumberName":"U-component_of_WINDS"},"data":[0,0,0,0,0,0,0,0,0,0,0,0,0,0,0,0,0,0,0,0,0,0,0,0,0,0,0,0,0,0,0,0,0,0,0,0,0,0,0,0,0,0,0,0,0,0,0,0,0,0,0,0,0,0,0,0,0,0,-4.8833,-4.8834,0,-4.8899,-4.8899,-4.89,-4.8795,-4.8791,-4.8787,-4.8784,-4.8853,-4.8858,-4.8863,0,0,0,0,0,0,0,0,0,0,0,0,0,-4.862,-4.8624,-4.8833,-4.8834,-4.8835,-4.8899,-4.8899,-4.89,-4.8795,-4.8791,-4.8786,-4.8782,-4.8851,-4.8858,-4.8864,0,0,0,0,0,0,0,0,0,0,0,0,0,-4.8702,-4.8625,-4.8833,-4.879,-4.8787,-4.8898,-4.89,-4.8901,-4.8796,-4.8791,-4.8785,-4.878,-4.8849,-4.8857,-4.8865,-4.9022,0,0,-4.8889,-4.8892,0,0,0,0,0,0,0,0,-4.8697,-4.8709,-4.8796,-4.8793,-4.879,-4.8833,-4.8849,-4.8941,-4.8798,-4.8793,-4.8784,-4.8777,-4.8851,-4.8858,-4.8883,-4.9025,-4.9028,-4.8889,-4.8894,-4.8897,-4.89,0,0,0,0,0,0,0,-4.8691,-4.8706,-4.8859,-4.8797,-4.8794,-4.8768,-4.8774,-4.8866,-4.8852,-4.8793,-4.8785,-4.8794,-4.8848,-4.8875,-4.8883,-4.9029,-4.8889,-4.8896,-4.8901,-4.8904,-4.9306,-4.9311,0,0,0,0,0,0,-4.8691,-4.8702,-4.8857,-4.8861,-4.8729,-4.8776,-4.8783,-4.8825,-4.885,-4.8849,-4.8799,-4.8789,-4.8865,-4.8874,-4.8885,-4.9073,-4.8897,-4.8905,-4.8909,-4.93,-4.9307,-4.9313,0,0,0,0,0,0,-4.8687,-4.8706,-4.8854,-4.878,-4.8797,-4.8786,-4.8834,-4.8829,-4.8856,-4.8855,-4.8852,-4.8829,-4.8861,-4.8874,-4.8989,-4.9073,-4.8908,-4.8915,-4.9293,-4.9302,-4.931,-4.9448,0,0,0,0,0,0,-4.8681,-4.8705,-4.8764,-4.8782,-4.8801,-4.8957,-4.8839,-4.8834,-4.8869,-4.8857,-4.8882,-4.8881,-4.8857,-4.8978,-4.8997,-4.9081,-4.8921,-4.9285,-4.9297,-4.9307,-4.9436,-4.946,-4.9481,0,0,0,0,0,-4.8674,-4.88,-4.8768,-4.8787,-4.8875,-4.8962,-4.8973,-4.8942,-4.8876,-4.8936,-4.8936,-4.8881,-4.9061,-4.899,-4.9011,-4.9099,-4.928,-4.9293,-4.9306,-4.9425,-4.9455,-4.9481,0,0,0,0,0,0,-4.8793,-4.8802,-4.8766,-4.8902,-4.8932,-4.8944,-4.9018,-4.8975,-4.9025,-4.9011,-4.8971,-4.8978,-4.9102,-4.9111,-4.9033,-4.9253,-4.9159,-4.9177,-4.9243,-4.9271,-4.9294,-4.929,-4.8928,0,0,0,0,0,-4.8835,-4.8905,-4.8908,-4.9028,-4.9045,-4.903,-4.9066,-4.904,-4.907,-4.9082,-4.909,-4.9122,-4.9186,-4.9229,-4.9287,-4.9436,-4.9441,-4.9506,-4.9529,-4.9548,-4.9565,-4.9646,-4.9676,-4.9357,-4.9357,-4.9357,0,0,-4.8923,-4.8937,-4.8983,-4.9053,-4.9073,-4.9147,-4.9041,-4.9123,-4.9178,-4.9095,-4.9204,-4.9211,-4.9244,-4.9377,-4.9435,-4.9388,-4.9654,-4.9565,-4.958,-4.9587,-4.9663,-4.9693,-4.972,-4.9367,-4.9365,-4.9363,0,0,-4.9122,-4.9138,-4.924,-4.9263,-4.9294,-4.9283,-4.9308,-4.9327,-4.9328,-4.9437,-4.9376,-4.9441,-4.9551,-4.9577,-4.9605,-4.9814,-4.9766,-4.9834,-4.9954,-5.0034,-5.0059,-5.0081,-5.0157,-5.0185,-4.985,-4.9851,-4.9851,0,-4.9227,-4.9335,-4.9298,-4.9385,-4.9418,-4.9346,-4.945,-4.9473,-4.9523,-4.9548,-4.9494,-4.9632,-4.9649,-4.9787,-4.9838,-4.9863,-4.9891,-4.9832,-5.0058,-5.008,-5.01,-5.0172,-5.0201,-4.9859,-4.9858,-4.9857,-4.9856,0,-4.9465,-4.954,-4.9619,-4.9669,-4.971,-4.9806,-4.9784,-4.983,-4.98,-4.9795,-4.9907,-4.9925,-4.9986,-5.0017,-4.9988,-5.0152,-5.0122,-5.0064,-4.9969,-5.0139,-5.0206,-5.0234,-4.9871,-4.9868,-4.9865,-4.9863,0,0,-4.9741,-4.9769,-4.9799,-4.9821,-4.9851,-4.9909,-5.0001,-5.006,-5.0102,-5.0139,-5.0216,-5.0311,-5.0258,-5.0289,-5.0263,-5.0333,-5.0499,-5.0266,-5.0266,-5.031,-5.0682,-5.0728,-5.076,-5.0466,-5.0471,-5.0475,-5.068,0,-4.994,-5.0098,-5.0068,-5.0223,-5.0293,-5.0225,-5.0306,-5.0333,-5.0331,-5.0391,-5.0388,-5.0457,-5.038,-5.0399,-5.0464,-5.0465,-5.0574,-5.0449,-5.0539,-5.0543,-5.0535,-5.0795,-5.0843,-5.1035,-5.0706,-5.0711,-5.0714,0,-5.0193,-5.0239,-5.0402,-5.0421,-5.0449,-5.0522,-5.0575,-5.0632,-5.0663,-5.0656,-5.0692,-5.0653,-5.0745,-5.0648,-5.0776,-5.0692,-5.0727,-5.0733,-5.0739,-5.0748,-5.064,-5.0813,-5.1096,-5.1126,-5.0754,-5.0751,-5.0748,0,-5.0381,-5.0484,-5.0594,-5.0615,-5.064,-5.0693,-5.0706,-5.073,-5.0768,-5.0814,-5.0839,-5.0895,-5.0927,-5.0972,-5.095,-5.088,-5.1082,-5.0983,-5.1081,-5.1082,-5.1128,-5.1126,-5.1423,-5.1148,-5.1147,-5.1147,-5.1146,0,-5.0607,-5.071,-5.0679,-5.0747,-5.086,-5.0824,-5.0937,-5.0942,-5.0965,-5.1034,-5.0978,-5.1044,-5.1009,-5.1073,-5.1056,-5.1165,-5.1179,-5.1178,-5.1172,-5.1184,-5.1184,-5.1207,-5.1194,-5.1154,-5.1153,-5.1151,-5.115,0,-5.0837,-5.082,-5.0937,-5.0951,-5.0957,-5.104,-5.1052,-5.1116,-5.1109,-5.1197,-5.1215,-5.1205,-5.1277,-5.1259,-5.1337,-5.1326,-5.1464,-5.1441,-5.1455,-5.145,-5.1549,-5.1541,-5.1873,-5.1916,-5.1612,-5.1615,-5.1617,0,-5.0984,-5.1061,-5.1083,-5.1125,-5.1142,-5.121,-5.1248,-5.1216,-5.1259,-5.1299,-5.1359,-5.1426,-5.1478,-5.1596,-5.1596,-5.1657,-5.1635,-5.1748,-5.1644,-5.1654,-5.1639,-5.1636,-5.1644,-5.1769,-5.1772,-5.1775,-5.1778,0,-5.1246,-5.1234,-5.1291,-5.1347,-5.1394,-5.1436,-5.1472,-5.151,-5.148,-5.1531,-5.1604,-5.1644,-5.1724,-5.1792,-5.1847,-5.1861,-5.1816,-5.181,-5.1836,-5.185,-5.1855,-5.1855,-5.1513,-5.1803,-5.18,-5.1798,-5.1797,-5.1796,-5.144,-5.1506,-5.1532,-5.1598,-5.1622,-5.1658,-5.1719,-5.172,-5.178,-5.1842,-5.1819,-5.1903,-5.1932,-5.2001,-5.2022,-5.2088,-5.2046,-5.2083,-5.2093,-5.2103,-5.2117,-5.1843,-5.2098,-5.2097,-5.2096,-5.2096,-5.2095,0,-5.1701,-5.1714,-5.1775,-5.1828,-5.1881,-5.1832,-5.187,-5.1917,-5.1992,-5.2022,-5.2074,-5.2158,-5.2224,-5.2229,-5.2291,-5.2343,-5.2324,-5.236,-5.2357,-5.2362,-5.215,-5.2122,-5.2375,-5.2375,-5.2375,-5.2375,-5.2375,-5.2375,-5.1843,-5.1952,-5.1944,-5.2065,-5.2077,-5.2159,-5.2185,-5.2218,-5.2242,-5.2339,-5.2393,-5.2395,-5.2416,-5.2479,-5.2537,-5.2537,-5.2563,-5.2609,-5.2601,-5.2404,-5.2376,-5.235,-5.2323,-5.2614,-5.2615,-5.2807,-5.2809,-5.281]},{"header":{"parameterUnit":"m.s-1","parameterCategory":1,"la1":30.2991,"la2":30.254,"lo1":-89.0895,"lo2":-89.0444,"dy":0.0017,"dx":0.0017,"nx":28,"ny":28,"refTime":"2024-03-11T09:00:00:Z","depth":0,"parameterNumber":3,"parameterNumberName":"V-component_of_WINDS"},"data":[0,0,0,0,0,0,0,0,0,0,0,0,0,0,0,0,0,0,0,0,0,0,0,0,0,0,0,0,0,0,0,0,0,0,0,0,0,0,0,0,0,0,0,0,0,0,0,0,0,0,0,0,0,0,0,0,0,0,-2.3442,-2.3441,0,-2.3423,-2.3423,-2.3423,-2.3373,-2.3372,-2.3371,-2.337,-2.3351,-2.3352,-2.3352,0,0,0,0,0,0,0,0,0,0,0,0,0,-2.3433,-2.3433,-2.3442,-2.3441,-2.3441,-2.3423,-2.3423,-2.3423,-2.3373,-2.3372,-2.3371,-2.3369,-2.3351,-2.3352,-2.3352,0,0,0,0,0,0,0,0,0,0,0,0,0,-2.3428,-2.3433,-2.3442,-2.3414,-2.3412,-2.3423,-2.3423,-2.3423,-2.3373,-2.3372,-2.337,-2.3369,-2.3351,-2.3352,-2.3352,-2.3389,0,0,-2.3355,-2.3355,0,0,0,0,0,0,0,0,-2.3428,-2.3428,-2.3419,-2.3416,-2.3413,-2.3399,-2.3413,-2.3411,-2.3374,-2.3388,-2.337,-2.3368,-2.3368,-2.3368,-2.3368,-2.3388,-2.3387,-2.3355,-2.3355,-2.3355,-2.3356,0,0,0,0,0,0,0,-2.3429,-2.3429,-2.3434,-2.3418,-2.3415,-2.3403,-2.34,-2.3412,-2.3387,-2.3387,-2.3383,-2.3381,-2.3367,-2.3367,-2.3367,-2.3387,-2.3355,-2.3355,-2.3356,-2.3356,-2.3435,-2.3436,0,0,0,0,0,0,-2.3433,-2.3429,-2.3435,-2.3434,-2.3417,-2.3404,-2.3401,-2.3405,-2.3387,-2.3383,-2.3383,-2.3379,-2.3367,-2.3366,-2.3366,-2.3406,-2.3355,-2.3356,-2.3357,-2.3433,-2.3435,-2.3437,0,0,0,0,0,0,-2.3433,-2.3434,-2.3436,-2.343,-2.343,-2.3406,-2.3411,-2.3405,-2.3406,-2.3384,-2.3379,-2.3388,-2.3365,-2.3365,-2.3383,-2.3405,-2.3357,-2.3357,-2.3431,-2.3434,-2.3436,-2.3489,0,0,0,0,0,0,-2.3433,-2.3434,-2.3448,-2.3431,-2.343,-2.3454,-2.3412,-2.3406,-2.3407,-2.3402,-2.3388,-2.3384,-2.3364,-2.3382,-2.3384,-2.3405,-2.3358,-2.3429,-2.3432,-2.3435,-2.3485,-2.3493,-2.3499,0,0,0,0,0,-2.3433,-2.3464,-2.3449,-2.345,-2.3447,-2.3455,-2.3454,-2.3431,-2.3409,-2.3423,-2.3409,-2.3384,-2.3403,-2.3385,-2.3386,-2.3408,-2.3428,-2.3431,-2.3435,-2.3482,-2.3491,-2.3499,0,0,0,0,0,0,-2.3485,-2.3462,-2.3445,-2.3472,-2.3466,-2.3447,-2.3463,-2.3442,-2.3442,-2.3438,-2.3408,-2.3405,-2.3427,-2.3419,-2.34,-2.3442,-2.3411,-2.3415,-2.3446,-2.3455,-2.3462,-2.3463,-2.3358,0,0,0,0,0,-2.35,-2.3508,-2.3487,-2.3513,-2.3511,-2.3488,-2.349,-2.3472,-2.3465,-2.3462,-2.3449,-2.3443,-2.3447,-2.3451,-2.3453,-2.3483,-2.3479,-2.3499,-2.3506,-2.3512,-2.3516,-2.353,-2.3538,-2.3449,-2.3449,-2.3449,0,0,-2.353,-2.3519,-2.3526,-2.3523,-2.3516,-2.3525,-2.3486,-2.3497,-2.3503,-2.3464,-2.348,-2.347,-2.3461,-2.3485,-2.3495,-2.3479,-2.354,-2.3517,-2.3522,-2.3522,-2.3535,-2.3543,-2.3551,-2.3451,-2.3451,-2.3451,0,0,-2.359,-2.3583,-2.3603,-2.3596,-2.3586,-2.357,-2.3575,-2.3559,-2.3551,-2.3566,-2.3537,-2.3543,-2.3551,-2.3545,-2.3544,-2.36,-2.3577,-2.3601,-2.3639,-2.3653,-2.366,-2.3666,-2.3685,-2.3692,-2.3605,-2.3605,-2.3605,0,-2.363,-2.3642,-2.3616,-2.3628,-2.3628,-2.3592,-2.3611,-2.3606,-2.3598,-2.3598,-2.358,-2.3588,-2.358,-2.3601,-2.3615,-2.3615,-2.3619,-2.3603,-2.3661,-2.3667,-2.3672,-2.369,-2.3697,-2.3608,-2.3608,-2.3608,-2.3607,0,-2.369,-2.3699,-2.3716,-2.3708,-2.3709,-2.3725,-2.3701,-2.3705,-2.3687,-2.3673,-2.3688,-2.3676,-2.3675,-2.3679,-2.3662,-2.3698,-2.3688,-2.3666,-2.3635,-2.3684,-2.37,-2.3707,-2.3613,-2.3611,-2.3611,-2.361,0,0,-2.3783,-2.3759,-2.3766,-2.3761,-2.3747,-2.3753,-2.3767,-2.3765,-2.3769,-2.3764,-2.3774,-2.3781,-2.376,-2.3758,-2.374,-2.3752,-2.3795,-2.3728,-2.3727,-2.374,-2.3833,-2.3849,-2.3857,-2.378,-2.3781,-2.3782,-2.3833,0,-2.3839,-2.3861,-2.3837,-2.3865,-2.3872,-2.3837,-2.3849,-2.3841,-2.3828,-2.3831,-2.3817,-2.3822,-2.3794,-2.3792,-2.3803,-2.3788,-2.3813,-2.3784,-2.3789,-2.3789,-2.3792,-2.3866,-2.3883,-2.3932,-2.3839,-2.384,-2.3841,0,-2.3907,-2.3905,-2.3932,-2.3914,-2.3916,-2.3928,-2.3923,-2.3928,-2.3918,-2.3907,-2.3904,-2.3881,-2.3893,-2.3862,-2.3877,-2.3858,-2.3858,-2.3851,-2.3852,-2.3852,-2.3818,-2.3866,-2.3947,-2.3954,-2.3851,-2.385,-2.385,0,-2.3971,-2.3975,-2.3991,-2.3988,-2.3968,-2.3977,-2.3969,-2.3957,-2.3957,-2.3953,-2.3953,-2.3951,-2.395,-2.3948,-2.3925,-2.3905,-2.3943,-2.3911,-2.3934,-2.3934,-2.3943,-2.3943,-2.4024,-2.3945,-2.3945,-2.3944,-2.3944,0,-2.4036,-2.4054,-2.4019,-2.403,-2.4048,-2.402,-2.404,-2.4028,-2.4017,-2.4024,-2.3994,-2.4001,-2.3971,-2.3974,-2.3956,-2.3971,-2.3971,-2.3962,-2.3957,-2.3965,-2.3966,-2.3964,-2.396,-2.3946,-2.3946,-2.3946,-2.3945,0,-2.4111,-2.4088,-2.4104,-2.4083,-2.4078,-2.4093,-2.4075,-2.4083,-2.4067,-2.4076,-2.4077,-2.4052,-2.4054,-2.4031,-2.403,-2.4017,-2.404,-2.4029,-2.4044,-2.404,-2.4064,-2.4062,-2.4147,-2.4156,-2.4071,-2.4072,-2.4073,0,-2.4153,-2.4166,-2.4146,-2.4148,-2.4141,-2.4146,-2.4145,-2.4118,-2.4118,-2.4107,-2.4116,-2.4116,-2.4114,-2.412,-2.4102,-2.41,-2.4088,-2.4118,-2.4088,-2.4095,-2.4088,-2.4087,-2.4088,-2.4125,-2.4126,-2.4127,-2.4127,0,-2.423,-2.4218,-2.4218,-2.4215,-2.4215,-2.4211,-2.4205,-2.4208,-2.4178,-2.418,-2.4182,-2.4181,-2.4178,-2.4178,-2.4173,-2.4164,-2.4141,-2.4137,-2.4142,-2.415,-2.4157,-2.4152,-2.406,-2.4135,-2.4134,-2.4134,-2.4133,-2.4133,-2.4289,-2.4298,-2.4285,-2.4286,-2.4279,-2.4273,-2.4279,-2.4264,-2.4265,-2.4261,-2.4244,-2.4249,-2.4237,-2.4226,-2.422,-2.4222,-2.4208,-2.4216,-2.4217,-2.4219,-2.4223,-2.4157,-2.4222,-2.4221,-2.4221,-2.4221,-2.4221,0,-2.4364,-2.4353,-2.4355,-2.4346,-2.4347,-2.4325,-2.4316,-2.4318,-2.4322,-2.4313,-2.4312,-2.4313,-2.4312,-2.4294,-2.4291,-2.4296,-2.4285,-2.4296,-2.4295,-2.4294,-2.4237,-2.4233,-2.4305,-2.4305,-2.4305,-2.4305,-2.4305,-2.4305,-2.4403,-2.4417,-2.4403,-2.4412,-2.4401,-2.4405,-2.4402,-2.4397,-2.4389,-2.4392,-2.4391,-2.4378,-2.4365,-2.436,-2.4359,-2.4353,-2.4353,-2.4367,-2.4358,-2.4306,-2.4298,-2.429,-2.4285,-2.4368,-2.4368,-2.4414,-2.4415,-2.4415]}]]